Theta_e
333 334 333 334 336 337 337 334 332 333 333 332 330 323 318 321 325 326 326 325 325 324 326 325 325 328 330 330 330 331 329 327 327 326 323 321 319 319 319 320 321 320 321 323 324 324 324 323 320 317 315 313 312 313 314 312 309 308 307 307 306 305
328 334 335 333 334 336 336 334 331 333 334 333 331 324 318 323 327 326 327 327 326 326 327 327 327 328 330 330 331 331 329 328 327 326 324 323 321 321 320 321 323 322 322 324 324 324 323 323 322 321 318 314 313 313 313 311 310 308 308 308 307 306
322 328 334 335 335 336 336 335 333 332 334 332 332 329 320 322 329 328 327 328 328 326 326 328 327 328 328 329 332 332 330 329 328 326 325 324 323 322 321 321 322 323 324 324 325 324 324 324 322 322 322 318 314 313 312 312 311 310 309 308 308 307
318 321 326 330 333 335 335 336 336 332 333 333 332 332 325 323 329 329 328 328 330 328 327 328 329 329 328 328 332 332 329 329 328 326 325 325 324 324 322 321 321 322 323 325 325 325 325 325 323 320 322 321 317 313 312 312 311 310 310 309 309 307
317 318 319 322 327 332 334 335 336 334 333 334 333 331 328 326 328 329 328 328 330 329 328 329 330 331 329 329 332 332 330 329 328 327 326 326 326 325 324 322 321 321 322 324 325 325 324 326 325 322 321 321 321 316 312 312 312 310 309 310 310 308
317 317 318 318 321 328 333 333 335 336 335 335 335 332 329 328 329 329 328 327 329 330 329 329 331 331 329 329 331 331 330 329 328 328 326 326 327 326 325 323 322 322 322 323 324 325 324 325 325 324 321 321 323 320 314 312 312 311 310 310 311 309
315 317 317 317 318 324 332 334 334 335 335 336 336 334 330 329 330 329 329 328 328 329 330 330 331 331 329 328 329 329 328 328 329 328 326 326 327 326 326 324 323 322 322 322 322 323 324 325 325 325 323 322 324 322 318 314 313 314 312 311 312 310
312 314 316 317 318 320 326 332 334 334 335 335 335 335 333 331 331 330 329 329 328 328 329 330 330 330 330 329 329 328 328 328 328 326 325 325 326 326 325 324 323 322 322 322 322 322 323 324 325 325 325 324 324 325 322 317 315 317 316 313 312 311
309 310 312 315 317 318 320 325 331 333 334 334 334 334 334 332 331 331 330 330 329 328 327 328 329 328 329 329 330 330 328 328 328 326 324 323 324 325 324 323 322 321 321 321 321 321 322 322 323 325 325 325 325 325 324 321 318 318 318 316 314 312
308 309 310 312 314 317 318 320 323 326 330 332 333 334 334 333 330 329 330 330 329 328 327 327 327 327 328 328 330 330 327 327 328 326 323 321 322 323 323 322 320 320 320 319 319 320 320 321 322 324 325 326 326 326 326 324 321 320 319 318 316 314
307 308 309 309 311 313 315 317 318 319 322 325 327 330 333 334 332 329 328 330 329 328 328 327 326 327 328 328 328 328 327 327 327 324 322 321 321 322 321 320 318 318 319 318 317 318 318 319 321 322 324 326 326 326 326 325 324 322 320 319 317 315
306 306 307 309 309 310 311 313 315 315 317 318 319 322 325 328 332 332 331 329 328 329 328 327 326 325 326 326 326 327 327 327 324 321 322 321 320 320 319 319 318 317 318 318 316 315 316 316 319 321 323 326 326 326 326 325 325 324 322 319 317 315
305 306 306 307 307 309 310 310 310 311 312 313 314 315 317 319 322 328 331 331 329 329 328 327 327 325 324 325 326 327 326 325 324 323 323 323 322 320 321 322 320 318 318 318 316 314 314 314 316 319 322 325 326 326 326 326 325 324 323 320 317 315
306 306 305 305 306 306 307 308 309 310 310 310 310 311 312 313 314 318 324 329 330 330 328 328 328 327 325 325 325 327 328 327 326 325 326 327 326 322 323 326 323 320 319 318 317 315 311 311 313 317 321 324 326 326 325 326 326 325 324 321 317 314
305 305 305 305 305 305 305 306 307 308 310 310 310 310 309 309 310 312 316 323 330 331 329 328 328 329 328 327 326 326 328 329 329 328 328 329 330 326 326 328 327 323 320 319 318 316 311 309 311 316 320 323 326 326 326 326 325 324 323 321 318 314
305 305 305 305 305 305 305 305 305 306 308 310 311 311 311 310 309 310 311 317 325 328 329 330 329 329 330 329 329 328 328 328 330 330 329 329 331 331 329 329 330 328 324 320 319 317 311 308 311 315 319 322 325 326 326 325 325 324 323 321 318 315
305 306 306 306 306 306 306 305 306 305 305 307 310 311 312 312 311 310 310 313 318 322 327 331 330 330 331 330 330 330 329 329 330 331 331 330 331 332 331 330 331 330 327 322 319 318 312 308 311 316 320 323 324 325 325 324 323 323 321 320 318 317
307 307 307 307 307 306 306 306 306 306 306 305 307 309 311 312 311 311 311 311 313 317 323 329 331 331 331 331 331 331 331 332 331 331 331 331 331 332 332 331 331 331 329 325 320 318 313 308 312 318 321 323 324 324 324 323 322 321 319 317 315 315
307 307 307 307 307 306 305 305 305 306 307 307 306 307 308 310 310 311 311 311 311 313 318 324 328 330 331 332 332 332 333 334 334 333 332 331 331 331 332 332 332 331 329 326 322 319 313 308 312 319 322 323 324 323 323 322 321 319 314 312 313 315
308 307 307 307 307 307 306 305 305 305 305 306 307 307 307 308 309 310 311 311 312 312 313 315 319 324 328 331 332 333 334 334 335 334 334 332 330 330 331 331 332 331 329 326 322 319 314 308 312 321 323 323 324 323 322 320 317 313 311 313 316 318
310 309 309 308 308 307 306 306 305 305 304 304 306 307 307 307 308 310 311 312 313 313 313 312 313 315 318 323 327 332 334 334 333 332 333 333 331 328 329 331 332 330 328 326 323 319 314 308 313 321 324 324 323 321 318 315 312 311 314 317 319 320
311 311 310 310 309 307 306 305 305 305 304 304 304 306 308 308 308 308 310 311 312 312 313 313 313 312 312 313 316 322 328 333 333 330 330 333 333 329 327 330 331 330 329 326 323 321 315 311 314 319 323 323 320 316 313 313 314 316 319 320 320 321
311 311 311 311 310 307 305 305 305 304 304 304 303 305 307 308 309 308 309 310 310 311 312 312 313 313 313 312 311 313 316 321 324 322 322 330 334 329 327 330 330 329 328 326 324 321 318 315 315 318 322 322 320 319 318 317 317 320 321 320 320 318
312 311 311 311 309 306 305 305 304 304 304 303 303 304 306 308 309 310 309 310 310 311 311 312 313 313 313 313 312 312 312 312 312 311 314 328 335 331 327 329 330 329 327 326 324 322 320 318 317 318 321 322 323 324 323 323 322 321 321 320 318 314
312 311 311 311 308 306 305 305 304 303 303 303 303 304 307 309 310 310 311 310 311 311 311 312 312 313 313 313 313 312 313 312 311 310 312 323 332 332 329 329 329 329 328 325 325 324 322 320 319 318 319 321 324 325 325 325 325 323 321 319 316 311
312 312 311 310 307 305 305 304 304 303 302 303 302 304 308 310 310 311 311 310 311 311 311 312 311 312 312 313 313 313 313 312 312 314 315 317 322 325 327 329 330 330 328 326 325 325 324 322 321 320 320 321 322 323 324 325 324 324 323 320 315 310
312 311 310 308 306 305 305 304 304 302 302 302 302 304 308 311 312 311 311 311 312 311 311 311 311 311 311 312 313 313 313 312 312 315 318 319 321 321 320 322 327 330 329 327 326 325 325 324 323 322 321 321 321 322 323 323 323 324 323 320 315 310
312 311 310 307 305 305 305 304 304 303 303 303 303 303 306 310 311 312 312 312 312 312 312 311 311 311 311 311 312 312 313 313 312 314 317 320 324 326 324 320 323 330 330 328 327 326 326 325 325 324 323 322 322 323 323 323 323 323 323 322 318 312
312 311 309 307 305 305 305 304 304 304 304 304 304 304 304 307 309 310 311 312 312 312 311 311 311 311 311 311 311 312 312 313 313 313 315 318 321 325 328 328 328 330 330 329 328 327 327 326 325 325 324 323 323 324 324 325 325 324 322 323 322 318
312 311 309 307 305 305 305 305 304 304 304 305 305 305 304 305 306 308 309 310 310 311 311 311 311 310 311 311 310 311 312 313 313 312 313 316 320 322 324 327 329 330 330 330 329 328 328 327 326 326 325 324 324 324 326 326 326 325 324 323 324 322
312 311 309 307 305 305 305 304 304 304 304 305 305 306 306 305 306 306 307 308 308 309 309 310 310 311 311 311 311 311 311 312 312 313 312 313 317 321 323 324 324 326 328 328 329 329 328 328 328 327 326 324 324 324 325 326 326 326 326 325 324 323
312 311 309 307 305 305 304 304 304 304 304 304 305 305 305 306 306 306 307 307 308 308 308 308 308 309 310 310 311 311 311 311 311 312 312 312 312 315 318 321 322 322 323 324 326 329 329 329 329 328 327 326 324 324 324 324 325 325 325 326 325 324
312 311 309 306 305 305 304 304 304 304 304 303 303 304 304 305 306 306 307 308 309 308 308 308 308 308 308 309 310 311 311 311 311 311 312 312 312 312 313 316 321 323 321 320 323 327 329 328 327 328 328 327 325 324 325 324 325 325 324 325 327 325
312 310 309 306 305 305 304 304 304 304 304 303 303 303 303 304 304 305 306 308 309 309 309 309 309 309 308 308 309 310 311 311 311 311 311 312 312 312 312 313 318 322 321 320 321 324 328 329 327 328 328 326 326 325 325 324 325 325 324 325 326 326
311 310 308 306 305 304 304 304 304 304 304 304 303 303 302 302 303 303 304 306 308 309 309 309 309 309 309 309 309 309 310 311 312 311 311 312 312 312 312 312 314 317 320 321 321 322 326 329 329 329 329 326 325 326 326 325 325 325 325 325 326 326
311 309 307 306 305 305 304 303 303 303 303 303 303 302 302 302 302 302 303 304 305 307 308 309 309 309 309 309 310 309 309 310 312 312 311 312 312 312 312 312 313 315 317 319 321 321 323 327 330 329 329 327 326 326 326 326 326 326 325 325 325 326
310 309 307 306 305 305 304 303 303 303 303 303 303 302 302 301 301 301 302 302 303 304 306 308 308 309 308 309 309 310 310 310 310 311 312 312 312 312 312 312 313 314 316 319 321 321 321 323 327 329 328 328 327 326 326 327 327 326 326 326 326 326
Wind_Speed
5 5 4 5 5 6 10 14 16 15 13 12 10 9 13 14 12 13 12 13 14 13 13 13 12 12 13 13 14 17 19 18 16 15 13 12 10 9 9 11 11 10 10 11 9 8 6 5 6 7 9 10 10 10 10 10 10 10 9 9 9 10
5 5 4 5 5 4 9 16 16 15 14 13 11 11 15 15 13 14 13 14 15 14 13 13 13 12 10 11 15 19 20 20 18 16 15 13 12 10 10 11 11 11 10 11 10 8 7 5 4 5 7 8 9 9 10 10 10 10 9 9 9 10
5 5 5 5 4 3 7 15 16 15 14 14 13 13 17 18 15 15 15 15 16 15 14 13 13 12 10 9 14 20 20 20 18 16 15 14 13 10 10 11 12 12 12 12 11 10 9 7 6 6 7 8 8 9 9 10 9 10 10 10 10 10
6 5 6 7 5 4 4 12 17 16 14 14 14 14 17 19 17 16 15 16 16 16 15 14 12 11 11 10 14 20 21 20 17 16 16 15 14 11 10 12 12 13 14 14 14 12 11 10 9 7 8 8 9 9 9 9 9 10 10 10 10 10
7 6 6 7 6 4 3 8 15 16 15 14 13 14 16 18 19 17 16 17 17 17 17 15 12 12 13 13 16 21 23 22 17 16 17 16 15 13 12 13 13 14 15 16 17 16 14 13 12 10 9 9 10 9 9 9 9 9 9 9 10 10
8 8 7 7 6 4 3 6 13 15 15 15 13 14 15 18 20 19 17 18 19 20 19 18 15 14 14 15 18 23 24 22 17 16 17 16 15 13 13 14 15 16 17 18 19 18 17 16 14 13 11 10 11 10 10 10 9 9 9 9 9 9
10 10 9 8 6 4 2 5 11 15 16 16 15 14 15 17 20 20 19 19 21 22 21 21 19 17 16 16 18 21 22 20 17 17 16 16 16 15 15 15 16 17 18 20 21 21 20 19 17 15 13 12 12 12 11 10 9 9 8 8 7 7
10 10 10 9 7 5 3 3 8 13 15 16 16 15 15 17 18 20 21 20 21 23 22 21 21 20 18 18 19 20 21 20 19 18 18 17 18 18 17 17 17 17 19 21 22 23 23 22 19 17 15 14 14 13 12 11 9 9 8 7 6 6
7 8 10 10 9 8 6 4 5 8 9 13 15 16 18 18 17 19 21 22 22 23 23 23 21 21 21 19 19 20 21 21 20 19 19 18 18 18 17 17 17 17 19 21 22 24 25 24 22 19 17 16 16 15 14 12 10 9 9 8 7 6
5 6 7 9 10 10 9 8 7 6 6 8 9 14 20 21 19 20 21 23 23 23 24 25 23 22 22 21 19 20 22 20 20 20 19 18 18 17 16 16 17 17 18 19 22 24 25 25 24 22 19 18 18 17 15 13 11 10 10 9 8 7
5 4 5 6 8 10 11 11 11 10 10 9 8 9 15 20 22 23 23 23 24 25 25 25 25 24 23 23 22 22 23 21 20 20 19 17 17 16 16 16 17 17 17 18 20 22 24 26 26 24 21 19 19 18 17 14 13 12 11 10 9 8
7 5 4 5 6 8 9 12 14 14 14 14 13 12 12 14 18 22 25 25 24 25 26 27 27 27 25 25 25 25 24 22 21 21 18 17 17 16 16 17 17 17 17 18 19 21 23 25 27 26 23 21 21 20 18 16 15 14 13 12 11 10
10 9 7 5 5 6 7 9 12 15 16 17 18 18 17 16 16 16 19 25 27 26 27 29 29 29 28 27 26 26 26 25 23 21 20 18 19 19 18 17 17 18 18 19 19 20 21 25 27 27 24 22 22 21 20 18 17 15 14 14 13 11
12 11 10 8 6 6 7 8 10 12 14 16 17 19 21 21 19 17 16 19 26 29 29 29 29 28 29 30 29 28 28 29 26 24 23 22 21 22 21 18 16 17 18 19 19 19 20 24 27 28 26 24 23 22 21 19 18 17 16 15 14 13
13 13 12 11 9 7 7 8 9 11 13 14 14 16 19 21 21 20 18 17 21 28 31 31 29 28 29 30 31 30 30 29 28 28 27 26 24 24 23 20 17 16 17 18 19 19 20 23 27 28 27 25 24 23 21 20 19 18 17 16 15 14
13 14 14 14 13 11 10 9 9 10 12 13 13 13 15 18 19 19 19 19 18 21 29 34 32 30 30 30 29 30 31 30 30 30 30 29 27 26 24 22 20 17 16 17 18 20 20 22 26 28 27 25 24 23 22 21 20 19 19 17 16 15
13 14 15 16 16 16 15 13 11 11 11 13 13 12 13 14 15 15 17 19 18 17 23 31 35 34 32 31 30 29 30 30 31 32 31 31 30 28 26 25 22 19 16 16 18 20 20 22 26 28 27 25 23 23 22 22 21 20 19 18 17 16
10 12 13 15 17 17 18 17 15 13 12 13 13 13 13 13 13 13 14 16 18 19 21 24 30 35 36 34 32 31 31 30 31 33 33 32 31 30 29 28 24 20 17 16 18 20 20 22 26 27 25 23 22 22 22 22 21 21 20 19 18 18
9 11 13 15 17 18 18 17 17 15 14 13 12 13 14 14 14 14 13 14 16 19 21 22 23 27 33 36 35 33 31 29 30 32 35 35 33 33 33 31 27 22 19 18 19 20 20 22 26 26 23 21 20 20 21 21 21 21 19 18 18 18
9 11 13 15 17 20 20 19 18 17 14 13 12 12 13 15 15 14 13 13 15 17 19 21 22 23 28 33 36 35 31 28 27 28 35 38 36 36 36 34 29 25 22 21 21 21 21 22 26 26 23 21 20 20 21 20 20 19 18 18 18 19
10 12 13 15 18 21 23 23 22 21 18 14 13 11 11 13 14 14 12 12 13 16 17 18 21 24 26 27 31 35 35 33 29 25 30 37 39 37 37 36 31 26 24 23 23 24 23 24 26 26 24 24 23 22 21 20 20 19 18 18 19 20
11 13 14 15 18 21 23 25 26 25 22 18 14 12 11 12 13 13 12 12 12 14 16 17 19 22 25 25 26 30 35 37 36 27 24 34 42 40 38 38 33 28 26 25 24 25 26 27 28 26 24 23 23 22 22 21 21 20 21 21 21 21
11 13 15 16 17 20 22 25 27 27 25 21 16 13 12 11 12 13 13 13 13 14 15 16 17 19 22 24 25 27 30 34 35 30 24 31 41 41 39 39 36 30 28 27 26 27 28 28 28 25 21 20 19 19 20 23 25 24 22 23 22 21
11 12 14 15 16 19 22 24 27 28 26 22 17 14 13 12 12 12 13 13 13 14 15 16 16 17 19 21 23 25 26 26 27 28 26 28 35 40 40 39 37 33 30 29 29 30 30 30 30 28 25 21 16 15 18 20 24 26 24 23 23 21
12 12 12 13 14 18 21 25 27 28 26 23 19 15 13 12 12 13 13 13 13 14 14 15 16 16 17 18 19 21 23 22 22 25 27 27 33 40 41 40 39 36 33 32 31 31 31 32 34 32 29 24 15 15 19 16 16 21 23 23 22 22
14 13 12 11 14 17 21 25 27 28 26 23 22 19 15 13 12 13 14 14 14 14 13 14 16 17 17 17 17 19 20 21 22 25 29 29 31 34 36 39 42 40 36 34 32 31 32 33 35 35 33 30 23 18 18 16 14 13 15 21 22 22
15 13 12 11 14 18 21 24 25 26 24 22 22 21 19 17 14 13 14 14 15 14 14 14 15 17 18 18 17 18 19 21 22 24 27 31 32 32 33 35 40 44 40 36 34 33 33 33 35 37 37 36 32 26 20 17 16 11 9 16 21 23
16 14 12 12 15 18 20 23 23 23 22 21 21 21 20 20 17 15 14 14 15 15 15 14 14 16 17 18 18 18 19 21 23 24 24 27 31 33 35 36 40 45 43 39 38 36 35 35 35 37 38 37 36 33 28 22 17 13 10 11 17 22
18 15 13 12 15 17 19 21 22 22 21 21 21 21 20 20 20 19 17 15 15 14 14 14 14 14 15 17 19 19 20 22 24 26 25 25 26 29 34 38 40 43 43 42 42 41 39 38 37 38 38 38 37 36 33 26 20 17 15 11 12 18
19 17 14 13 15 16 17 19 20 21 20 20 20 20 20 19 20 21 20 19 17 16 15 14 13 14 13 14 17 18 20 23 24 27 28 28 27 27 31 36 38 40 42 43 43 43 42 40 40 40 41 39 38 37 33 27 24 22 19 16 13 14
21 18 15 14 14 14 15 17 18 19 20 20 20 20 20 19 20 21 21 21 21 20 19 17 16 15 14 14 15 16 19 22 25 27 29 31 31 30 30 32 36 38 39 41 42 42 43 43 43 43 43 42 40 38 35 31 31 28 24 21 17 14
23 20 17 15 14 13 13 15 17 18 19 20 20 21 21 21 20 21 22 23 23 23 22 22 21 19 18 17 16 16 17 20 24 27 30 32 34 34 32 32 34 37 37 38 41 43 44 44 45 46 45 44 43 41 39 37 35 33 29 25 21 17
23 21 18 16 14 13 12 14 16 17 18 19 20 21 21 21 21 22 23 24 24 24 24 24 24 23 22 21 19 17 17 18 23 26 29 32 34 35 35 34 34 35 36 36 38 42 45 45 45 48 48 47 46 44 42 39 36 35 33 27 23 19
23 21 18 17 15 12 12 13 15 16 18 19 20 21 21 22 22 23 24 24 25 25 25 25 25 25 24 24 23 20 18 18 20 24 28 31 34 36 36 36 34 32 33 35 37 40 44 46 46 48 50 49 48 46 42 40 39 38 36 31 27 22
22 20 18 18 16 13 12 13 14 16 18 20 21 22 22 22 23 24 25 26 26 26 26 25 24 24 24 25 25 24 22 20 19 21 25 29 32 36 38 37 35 33 34 35 37 39 41 46 48 49 51 50 49 46 43 41 41 40 37 36 32 27
22 20 19 19 17 14 13 14 15 17 19 20 22 23 23 23 23 24 25 27 28 28 27 26 25 24 24 24 24 24 23 23 21 20 22 26 30 34 37 39 38 36 37 37 38 40 40 42 47 50 51 51 51 48 43 42 43 40 38 38 36 32
22 20 19 19 18 16 15 14 15 17 19 21 23 24 24 24 24 25 26 27 29 30 29 28 27 25 24 24 24 23 24 25 25 23 21 23 27 31 35 39 41 39 38 37 37 39 41 42 45 48 50 51 52 49 45 44 43 41 40 40 38 36
Wind_Direction
302 297 289 287 281 259 228 207 201 201 198 190 195 203 192 185 186 190 185 187 188 187 190 188 191 203 206 194 190 183 175 181 177 173 178 168 162 154 147 152 151 157 166 169 168 171 184 184 169 169 177 181 184 189 196 193 185 180 172 166 163 165
294 294 282 276 296 278 212 201 198 193 190 187 190 198 193 186 190 196 189 187 191 192 193 192 194 196 194 192 195 189 177 176 174 174 175 167 165 162 158 166 171 175 178 180 182 186 195 201 190 174 171 177 184 194 201 195 182 176 170 166 164 165
298 293 292 289 307 307 212 200 200 196 188 187 190 195 193 190 192 199 195 189 193 194 195 199 202 196 187 186 189 188 178 173 175 176 174 170 169 167 168 178 185 190 192 193 196 200 205 212 215 199 178 174 186 198 200 195 183 176 173 170 170 169
308 297 291 297 314 325 247 204 204 202 193 190 191 192 194 194 193 199 201 193 196 198 197 197 203 201 190 177 176 182 178 174 178 177 174 175 176 176 178 187 196 200 202 203 205 209 212 215 221 219 199 183 186 196 197 194 189 183 179 176 176 174
310 309 295 297 309 315 278 208 203 203 200 200 195 192 193 196 196 200 203 198 199 201 201 200 201 203 192 175 170 175 178 179 180 178 178 179 182 185 187 194 203 209 212 212 213 215 217 220 222 224 218 200 189 191 193 194 193 190 186 182 181 179
297 306 304 301 307 306 271 213 204 202 203 205 203 201 197 196 198 201 205 203 202 201 201 203 203 203 198 186 175 175 181 185 185 184 184 186 191 193 195 200 206 214 220 221 221 221 222 224 225 226 224 210 197 194 194 195 192 192 192 187 185 181
284 291 299 303 308 308 266 220 214 210 208 207 206 206 202 200 199 200 206 206 205 206 204 205 204 202 202 200 192 187 191 195 194 195 194 194 197 199 202 206 209 216 222 226 227 227 227 226 226 227 225 213 203 203 202 198 191 189 192 190 189 186
279 279 285 291 297 298 285 245 227 222 218 218 216 211 207 206 203 202 207 210 209 210 210 209 206 203 202 202 202 200 200 203 203 204 203 202 202 203 207 212 216 220 225 229 231 230 230 229 226 226 223 214 207 208 209 204 196 190 193 193 194 193
292 281 276 276 280 281 281 271 246 232 220 224 228 227 222 213 207 206 209 212 213 212 214 215 212 211 208 204 205 206 203 203 205 207 209 210 211 211 213 220 225 227 228 230 233 232 232 231 229 225 220 215 209 210 212 210 203 199 202 203 203 204
333 304 283 272 271 269 272 271 266 261 240 232 235 237 234 222 211 211 212 213 214 213 215 218 219 219 217 211 209 211 207 204 208 214 217 218 219 220 222 228 231 232 233 233 234 234 233 232 230 226 220 216 211 210 212 212 210 211 214 215 216 218
17 346 314 287 274 265 264 265 265 270 268 266 263 255 245 229 217 215 216 215 215 216 216 219 222 221 222 221 217 216 211 208 214 221 224 225 225 227 229 231 232 233 236 238 237 236 234 232 230 228 222 217 214 211 211 211 211 216 221 224 226 227
34 28 358 320 297 280 268 264 263 265 268 272 272 273 270 251 232 223 221 219 217 217 217 219 223 223 224 226 223 221 217 215 221 225 225 228 228 226 228 230 231 232 233 236 239 238 236 234 230 228 223 217 216 214 210 210 213 219 225 229 230 231
33 36 29 3 328 306 291 277 270 268 267 268 270 271 272 271 264 250 235 227 221 217 217 219 222 223 225 227 225 223 222 222 224 226 225 228 228 224 226 231 233 233 232 235 239 239 238 235 231 227 223 217 217 216 212 211 215 221 228 232 234 234
36 37 35 26 4 334 312 296 283 279 277 273 271 270 269 269 269 266 259 247 231 221 217 220 222 223 224 228 229 227 226 226 227 230 230 229 226 222 223 230 236 235 234 236 241 241 238 236 231 226 222 217 216 220 218 215 218 224 231 236 237 237
41 39 36 32 20 358 333 314 295 285 283 285 281 276 274 271 268 262 259 258 245 230 221 220 222 223 223 226 231 232 232 231 231 234 236 231 226 223 223 227 236 239 236 237 243 245 239 234 230 225 221 217 216 220 221 221 223 227 234 240 242 241
43 40 37 33 26 16 359 339 318 299 284 284 286 283 281 279 276 268 258 252 251 244 231 223 222 224 225 226 230 234 236 236 234 233 234 232 228 226 224 226 233 240 242 240 243 247 242 231 227 224 221 217 217 219 220 223 226 230 235 242 247 247
42 40 35 31 25 19 10 358 343 325 302 288 281 278 279 282 284 279 268 255 246 246 241 231 225 224 227 228 228 231 236 239 238 235 231 231 231 229 227 227 232 237 243 243 241 245 243 229 222 222 220 218 217 218 220 225 229 232 237 243 250 253
33 30 27 25 20 14 8 0 351 340 325 307 290 279 272 273 280 281 277 267 251 241 241 241 234 229 228 229 228 229 233 236 238 238 234 231 231 231 230 230 233 235 239 242 239 240 240 227 219 218 218 217 217 218 222 227 232 237 242 248 253 257
4 6 10 10 9 7 4 359 352 342 331 322 306 289 277 272 274 278 277 273 264 250 242 243 243 238 232 230 229 228 230 230 230 236 238 235 232 231 232 231 231 233 234 235 235 234 236 227 217 214 214 216 217 220 225 230 236 243 250 253 254 257
331 340 348 352 353 354 355 357 356 348 335 326 317 300 282 274 273 279 282 273 267 261 252 247 245 244 240 236 233 230 230 228 225 232 236 234 232 231 233 231 227 229 229 228 229 226 228 224 215 212 211 214 219 224 231 236 242 247 250 251 251 254
310 319 328 336 341 345 347 351 354 354 345 330 320 310 290 275 271 274 282 278 267 262 259 256 251 249 248 245 240 235 234 233 231 240 246 241 236 232 233 230 223 227 228 225 225 220 218 217 212 210 212 218 224 229 234 237 240 242 243 247 248 249
300 307 314 322 332 340 344 347 349 349 347 338 323 311 298 282 271 267 271 274 272 266 262 260 257 255 255 252 248 241 238 236 237 246 258 248 236 230 232 228 218 221 227 224 223 220 214 210 209 210 211 217 224 228 232 233 233 234 236 242 246 246
295 301 307 313 324 335 341 344 345 343 342 340 329 314 304 293 277 268 267 268 270 271 268 264 260 258 259 258 255 249 244 243 244 249 259 250 235 229 231 228 218 217 224 222 221 220 216 211 207 205 203 209 216 221 228 231 230 229 231 237 243 244
287 295 301 306 319 331 337 341 342 339 336 334 330 320 308 298 288 277 271 271 273 273 272 270 266 261 260 261 259 256 251 248 246 245 249 248 237 231 231 228 219 216 222 222 218 219 218 213 209 205 202 203 206 214 224 229 230 230 231 236 242 240
283 289 294 302 316 326 334 340 341 337 333 332 330 325 312 297 288 284 278 277 278 278 276 273 270 267 263 261 260 258 254 249 240 231 231 237 236 231 230 229 223 218 221 224 220 219 218 214 214 214 210 205 199 211 221 220 225 231 233 237 241 237
281 285 290 302 318 326 336 343 342 338 334 333 332 329 322 308 291 283 281 278 278 278 278 274 272 270 267 262 259 257 252 245 237 227 225 231 234 234 234 233 229 222 221 225 223 222 222 217 216 219 218 217 218 224 222 212 210 223 232 235 237 234
278 281 287 302 318 329 342 348 346 342 338 335 333 331 327 321 309 294 286 282 280 277 276 274 271 270 269 265 258 253 250 243 237 230 227 229 232 235 238 239 237 229 222 224 225 224 227 224 219 219 221 223 228 231 231 225 216 208 217 228 230 229
276 276 284 302 318 332 346 352 350 347 344 340 334 332 329 325 320 311 299 291 285 282 282 279 273 269 267 266 261 252 246 241 236 233 232 233 232 232 233 235 238 232 224 223 226 226 228 228 225 224 223 222 225 228 230 234 228 217 217 220 222 224
273 273 281 298 315 334 348 353 353 350 347 344 336 333 330 326 322 318 311 303 294 288 288 286 284 278 269 265 262 254 246 239 235 233 231 233 233 233 232 231 232 231 227 226 227 227 228 230 231 230 227 224 223 224 227 232 232 226 226 222 215 219
269 269 276 293 310 331 346 351 353 350 346 343 337 333 331 327 322 319 315 310 304 297 290 286 286 287 281 272 264 257 248 239 235 233 231 229 229 231 234 234 232 232 231 230 230 231 230 232 235 233 231 228 224 222 222 224 226 223 222 225 222 218
266 265 270 286 304 324 340 346 349 348 344 340 335 332 331 328 322 317 314 312 308 304 298 292 286 284 283 281 274 267 257 246 238 233 230 229 227 228 231 234 235 234 234 233 235 237 234 233 234 234 234 232 228 227 224 221 223 222 217 219 221 216
262 260 265 279 295 315 332 339 343 345 342 338 334 330 327 327 324 318 314 312 310 307 304 300 295 290 284 282 279 274 268 258 247 238 232 229 228 229 230 233 235 235 235 234 235 237 236 235 234 233 234 233 231 232 231 229 228 227 225 220 219 217
259 256 261 273 286 304 322 330 336 340 339 337 335 331 327 325 323 320 316 313 311 309 306 304 301 298 293 288 282 275 272 265 257 248 239 232 228 227 229 232 235 235 234 233 233 235 235 236 237 233 231 232 231 231 233 234 230 231 232 224 219 219
256 251 257 268 277 294 311 321 328 332 334 334 333 331 329 327 323 320 317 314 313 310 307 305 302 300 297 294 288 279 272 267 262 256 249 241 234 229 227 228 232 237 238 235 232 233 234 235 236 235 232 231 231 231 233 234 231 232 234 228 223 220
253 249 256 266 273 287 302 312 320 325 328 329 329 328 327 327 324 321 317 313 311 308 306 304 302 299 296 294 291 285 276 268 263 260 256 250 243 235 229 227 229 234 238 237 233 233 235 234 234 234 233 231 231 230 232 234 233 233 234 232 229 223
252 250 257 265 271 283 297 307 314 320 324 324 324 324 323 323 323 321 319 313 308 305 303 302 301 300 297 294 292 288 280 271 266 262 258 255 251 243 234 229 228 230 234 236 235 233 234 235 234 232 230 230 229 229 231 233 235 236 234 233 232 228
254 253 258 266 272 283 295 305 312 317 321 321 321 321 320 320 319 320 319 315 309 304 301 299 298 298 297 294 291 286 282 276 270 264 259 257 255 250 241 232 228 229 232 234 235 235 233 233 235 232 229 228 227 228 230 231 235 237 235 233 233 232